SCP
0 0 0 0 0 0 0 0 0 0 0 0 0 0 0 0 0 -0 -0 -0 -0 -0 0 0 0 -0 -0 -0 -0 -0 -0 -0 0 -0 -0 -0 -0 -0 -0 -0 -0 -0 -0 -0 -0 -0 -0 -0 -0
0 0 0 0 0 0 0 0 0 0 0 0 0 0 0 0 0 0 -0 0 -0 -0 -0 -0 -0 -0 -0 -0 -0 -0 -0 0 0 -0 -0 -0 -0 -0 -0 -0 -0 -0 -0 -0 -0 -0 -0 -0 -0
0 0 0 0 0 0 0 0 0 0 0 0 0 0 0 0 0 -0 -0 -0 -0 -0 -0 -0 -0 -0 -0 -0 -0 0 0 0 -0 -0 -0 -0 -0 -0 -0 -0 -0 -0 -0 -0 -0 -0 -0 -0 -0
0 0 0 0 0 0 0 0 0 0 0 0 0 0 0 0 0 -0 -0 -0 -0 -0 -0 -0 -0 -0 -0 -0 -0 -0 -0 -0 -0 -0 -0 -0 -0 -0 -0 -0 -0 -0 -0 -0 -0 -0 -0 -0 -0
0 0 0 0 0 0 0 0 0 0 0 0 0 0 0 0 -0 -0 -0 -0 -0 0 -0 -0 0 0 0 0 -0 -0 -0 -0 -0 -0 -0 -0 -0 -0 -0 -0 -0 -0 -0 -0 -0 -0 -0 -0 -0
0 0 0 0 0 0 0 0 0 0 0 0 0 0 0 0 -0 -0 -0 0 -0 0 -0 -0 0 0 0 0 -0 -0 -0 -0 -0 -0 -0 -0 -0 -0 -0 -0 -0 -0 -0 -0 -0 -0 -0 -0 -0
0 0 0 0 0 0 0 0 0 0 0 0 0 0 0 -0 -0 -0 -0 -0 -0 -0 0 -0 -0 -0 0 0 0 -0 0 -0 -0 -0 -0 -0 -0 -0 -0 -0 -0 -0 -0 -0 -0 0 0 0 0
0 0 0 0 0 0 0 0 0 0 0 0 0 0 0 0 -0 -0 -0 -0 0 0 0 0 -0 -0 -0 0 0 0 0 0 0 0 0 0 -0 0 0 0 -0 -0 -0 0 0 0 0 0 0
0 0 0 0 0 0 0 0 0 0 0 0 0 0 0 0 -0 -0 -0 -0 0 0 0 0 0 -0 -0 0 0 0 0 0 0 0 0 0 0 0 0 0 0 0 0 0 0 0 0 0 0
0 0 0 0 0 0 0 0 0 0 0 0 0 0 0 0 0 -0 -0 0 0 0 0 0 0 0 0 0 -0 0 0 0 0 0 0 0 0 0 0 0 0 0 0 0 0 0 0 0 0
0 0 0 0 0 0 0 0 0 0 0 0 0 0 0 0 0 -0 -0 -0 -0 0 0 0 0 0 0 0 0 0 0 0 0 0 0 0 0 0 0 0 0 0 0 0 0 0 0 0 0
0 0 0 0 0 0 0 0 0 0 0 0 0 0 0 0 0 -0 -0 -0 0 0 0 0 0 0 0 0 0 0 0 0 0 0 0 0 0 0 0 0 0 0 0 0 0 0 0 0 0
0 0 0 0 0 0 0 0 0 0 0 0 0 0 0 0 0 0 0 0 -0 0 0 0 0 0 0 0 0 0 0 0 0 0 0 0 0 0 0 0 0 0 0 0 0 0 0 0 0
0 0 0 0 0 0 0 0 0 0 0 0 0 0 0 0 0 0 0 0 -0 -0 0 0 0 0 0 0 0 0 0 0 0 0 0 0 0 0 0 0 0 0 0 0 0 0 0 0 0
0 0 0 0 0 0 0 0 0 0 0 0 0 0 0 0 0 0 0 0 0 -0 0 0 0 0 0 0 0 0 0 0 0 0 0 0 0 0 0 0 0 0 0 0 0 0 0 0 0
0 0 0 0 0 0 0 0 0 0 0 0 0 0 0 0 0 0 0 0 0 0 0 0 0 0 0 0 0 0 0 0 0 0 0 0 0 0 0 0 0 0 0 0 0 0 0 0 0
0 0 0 0 0 0 0 0 0 0 0 0 0 0 0 0 0 0 0 0 0 0 0 0 0 -0 0 0 0 0 0 0 0 0 0 0 0 0 0 0 0 0 0 0 0 0 0 0 0
0 0 0 0 0 0 0 0 0 0 0 0 0 0 0 0 0 0 0 0 0 0 0 0 0 0 0 0 0 0 0 0 0 0 0 0 0 0 0 0 0 0 0 0 0 0 0 0 0
0 0 0 0 0 0 0 0 0 0 0 0 0 0 0 0 0 0 0 0 0 0 0 0 0 0 0 0 0 0 0 0 0 0 0 0 0 0 0 0 0 0 0 0 0 0 0 0 0
0 0 0 0 0 0 0 0 0 0 0 0 0 0 0 0 0 0 0 0 0 0 0 0 0 0 0 0 0 0 0 0 0 0 0 0 0 0 0 0 0 0 0 0 0 0 0 0 0
0 0 0 0 0 0 0 0 0 0 0 0 0 0 0 -0 0 -0 0 0 0 0 0 0 0 0 0 0 0 0 0 0 0 0 0 0 0 0 0 0 0 0 0 0 0 0 0 0 0
0 0 0 0 0 0 0 -0 0 0 0 0 0 0 0 0 0 0 0 0 0 0 0 0 0 0 0 0 0 0 0 0 0 0 0 0 0 0 0 0 0 0 0 0 0 0 0 0 0
0 0 -0 -0 0 0 0 0 -0 -0 -0 0 0 0 0 0 0 0 0 0 0 0 0 0 0 0 0 0 0 0 0 0 0 0 0 0 0 0 0 0 0 0 0 0 0 0 0 0 0
0 0 0 -0 -0 0 0 0 -0 -0 -0 0 0 0 0 0 0 0 0 0 0 0 0 0 0 0 0 0 0 0 0 0 0 0 0 0 0 0 0 0 0 0 0 0 0 0 0 0 0
0 0 0 -0 0 0 0 0 0 0 0 0 0 0 0 0 0 0 0 0 0 0 0 0 0 0 0 0 0 0 0 0 0 0 0 0 0 0 0 0 0 0 0 0 0 0 0 0 0
0 0 0 0 -0 -0 0 0 0 -0 -0 -0 0 0 0 0 0 0 0 0 0 0 0 0 0 0 0 0 0 0 0 0 0 0 0 0 0 0 0 0 0 0 0 0 0 0 0 0 0
0 0 0 0 0 0 -0 0 0 0 0 0 0 0 0 0 0 0 0 0 0 0 0 0 0 0 0 0 0 0 0 0 0 0 0 0 0 0 0 0 0 0 0 0 0 0 0 0 0
0 0 0 0 0 0 -0 -0 0 0 0 0 0 0 0 0 0 0 0 0 0 0 0 0 0 0 0 0 0 0 0 0 0 0 0 0 0 0 0 0 0 0 0 0 0 0 0 0 0
0 0 0 0 0 0 0 0 0 0 0 0 0 0 0 0 0 0 0 0 0 0 0 0 0 0 0 0 0 0 0 0 0 0 0 0 0 0 0 0 0 0 0 0 0 0 0 0 0
0 0 0 0 0 0 0 0 0 0 0 0 0 0 -0 -0 -0 0 0 0 0 0 0 0 0 0 0 0 0 0 0 0 0 0 0 0 0 0 0 0 0 0 0 0 0 0 0 0 0
Wind_Speed_500mb
17 15 13 10 6 4 1 3 1 10 11 6 13 7 3 5 4 5 17 35 36 29 25 25 23 16 14 13 10 8 5 4 9 17 23 25 28 26 27 32 25 31 33 26 17 29 33 36 34
13 9 5 3 7 7 1 5 10 8 6 17 10 5 5 4 4 6 29 35 37 30 26 25 25 17 16 13 9 7 11 9 21 21 24 27 28 25 28 33 26 29 30 24 24 32 34 33 31
11 4 0 0 3 11 5 4 10 12 15 9 7 2 0 3 5 24 26 33 39 32 25 26 24 18 18 14 10 11 12 19 22 22 24 27 25 25 27 34 27 30 29 25 28 33 31 29 29
9 5 5 8 7 2 3 3 11 24 5 5 3 4 1 8 8 19 34 32 37 32 23 24 23 19 18 14 10 9 9 12 15 22 21 23 24 24 28 31 27 27 29 26 26 27 28 27 26
4 4 5 6 6 2 4 3 20 22 8 8 8 3 4 8 16 21 31 35 38 31 22 24 23 20 19 17 13 8 3 9 9 20 19 20 21 23 24 28 26 25 26 26 22 25 23 22 22
3 1 7 14 9 3 3 13 18 16 7 9 7 6 5 16 17 24 28 34 36 27 26 23 24 23 21 18 17 12 5 3 6 6 15 16 20 20 21 23 22 22 23 24 22 20 19 18 18
5 4 6 8 9 5 7 19 16 16 11 7 5 5 4 19 24 26 32 31 35 28 25 25 26 26 25 24 23 16 10 6 6 8 8 16 18 19 19 20 20 20 20 20 18 16 15 15 16
7 5 7 8 9 6 11 19 8 14 9 7 11 4 3 19 27 33 34 32 33 29 26 26 27 28 30 29 23 18 14 9 6 10 12 15 18 19 20 20 20 19 18 15 13 13 13 12 12
9 9 12 11 11 3 11 16 7 9 7 11 13 6 8 17 29 39 41 37 35 35 31 29 29 31 30 28 26 21 15 12 10 11 11 12 16 17 16 15 15 14 12 11 9 8 7 10 10
10 8 11 2 5 4 10 14 15 12 15 15 13 20 15 19 34 43 48 48 44 41 37 34 30 32 32 31 30 26 20 16 14 15 15 15 15 16 15 14 13 13 10 6 3 2 4 6 7
7 10 7 6 8 9 9 13 13 14 14 21 20 21 23 25 38 43 44 48 45 39 37 35 33 32 31 32 33 31 27 21 20 20 20 20 19 18 18 18 16 14 13 9 5 2 2 3 5
11 10 6 4 5 5 9 10 13 23 12 8 16 17 24 30 38 44 44 48 46 46 40 35 34 33 33 33 33 32 29 25 22 22 24 24 23 22 21 20 19 17 14 10 7 7 7 6 6
14 9 10 11 12 12 6 14 15 23 26 20 15 19 27 32 35 39 40 43 44 48 46 43 38 36 35 36 36 35 32 28 26 25 26 25 24 24 23 22 20 17 15 13 12 12 10 10 10
9 11 11 5 7 8 11 14 10 18 22 25 28 21 26 32 36 36 43 45 49 47 49 47 45 40 39 38 37 35 35 33 31 30 28 27 26 26 26 24 21 20 19 18 16 15 13 14 15
9 9 7 18 21 10 7 22 22 25 18 21 24 24 27 32 38 42 36 40 45 47 47 51 50 47 44 42 40 41 40 38 36 35 33 31 30 28 27 27 24 24 23 20 18 18 17 17 19
13 7 20 11 14 9 15 40 28 27 27 32 29 28 32 38 42 40 42 42 45 47 51 49 53 54 51 47 46 44 45 43 42 40 39 37 35 32 32 30 29 27 25 24 23 22 21 20 21
7 26 19 14 16 5 21 31 32 25 23 36 37 38 36 36 44 43 45 45 46 48 51 52 56 57 55 54 51 48 46 47 46 45 45 43 41 38 36 33 31 32 31 30 29 28 26 22 22
19 15 12 17 6 14 25 35 29 14 17 31 38 38 37 39 49 46 49 44 45 50 54 56 58 61 58 57 56 55 53 52 52 49 50 47 46 43 40 38 37 37 37 35 34 32 32 30 27
9 9 10 0 6 7 28 35 42 43 43 41 37 38 45 50 56 43 51 47 47 54 61 64 63 65 67 68 68 66 66 60 59 56 52 48 48 48 47 44 42 44 44 40 37 37 38 35 34
13 12 5 8 4 4 27 36 43 45 42 51 56 55 49 41 49 56 54 52 51 54 62 66 68 71 71 73 74 71 67 67 64 60 59 52 51 50 51 49 48 48 47 46 46 45 43 40 41
16 9 5 2 14 21 27 44 47 37 50 58 63 65 66 68 66 65 64 76 72 68 64 67 69 71 71 71 75 75 73 74 72 71 69 64 60 55 53 53 52 51 52 53 51 51 48 45 46
35 25 22 14 5 6 10 17 35 34 32 35 50 61 72 76 75 75 72 76 77 73 65 63 68 72 71 74 79 81 81 82 80 78 75 71 68 63 60 55 54 54 55 57 56 52 52 52 52
22 31 33 24 19 20 31 15 17 16 27 37 52 57 63 66 67 72 78 87 91 83 76 70 69 74 76 79 78 78 81 79 75 75 76 75 73 68 67 64 62 60 57 58 57 56 58 61 60
23 21 12 8 11 17 35 29 19 18 19 29 44 51 50 48 50 62 66 68 72 75 87 84 80 77 77 80 80 81 79 77 75 74 75 73 74 74 71 70 69 66 67 63 60 58 61 64 66
23 22 6 7 10 20 5 20 34 21 31 32 33 35 27 27 36 40 43 56 61 60 67 79 85 83 81 82 81 81 81 76 76 73 73 70 69 71 68 64 62 63 65 65 65 64 65 67 69
32 25 9 12 14 6 8 21 12 39 55 56 52 46 49 49 45 54 58 50 46 49 54 64 72 83 88 86 88 83 78 81 78 76 75 70 69 65 60 58 55 54 55 59 63 66 66 67 69
15 13 16 1 1 5 10 22 24 31 30 28 34 33 37 42 48 51 49 50 56 59 54 58 69 72 74 90 87 83 81 83 83 76 74 71 65 61 58 56 55 55 56 56 58 62 61 60 58
12 22 7 6 13 14 19 23 21 6 17 25 26 25 25 38 44 42 42 42 38 46 55 58 61 64 73 76 79 89 84 81 80 80 77 73 67 62 59 56 55 55 56 55 55 56 54 58 58
8 8 8 5 7 5 8 16 10 26 25 18 16 16 35 51 35 50 52 47 49 53 52 53 55 63 67 65 69 78 81 80 78 79 77 75 71 67 63 60 58 57 56 55 55 56 59 61 57
33 26 27 7 12 9 11 26 16 17 11 7 29 42 38 21 52 61 61 66 56 46 48 51 50 53 60 61 63 71 73 74 77 75 72 69 69 68 64 63 62 60 59 58 58 57 59 58 57
Wind_Direction_500mb
324 316 322 347 268 283 302 140 41 152 155 119 146 204 233 40 290 10 160 162 161 168 162 157 156 159 161 144 136 112 80 63 120 120 113 113 111 108 113 111 107 96 97 106 85 90 89 88 85
334 327 344 38 266 274 349 139 187 148 111 129 134 142 185 98 114 156 152 161 160 166 163 161 160 166 160 145 126 104 91 100 122 114 114 112 112 113 117 114 111 101 111 118 94 92 89 87 80
342 16 307 355 212 257 308 185 143 126 132 148 154 159 198 112 157 157 164 166 162 164 165 170 165 168 166 155 130 102 81 114 116 114 116 117 120 120 119 120 121 112 111 102 97 96 92 86 79
349 19 61 241 216 164 318 123 154 151 183 172 187 173 124 203 164 159 171 174 165 165 171 173 171 177 172 165 155 136 96 115 118 127 122 124 128 123 124 123 119 116 116 110 103 100 89 82 76
32 2 223 228 217 192 218 192 169 175 158 169 174 181 154 179 162 172 176 174 172 173 180 178 178 183 180 173 171 171 138 105 120 132 138 131 130 118 119 126 129 119 114 111 107 88 84 75 71
91 20 244 234 211 178 219 165 169 185 169 152 199 175 168 197 179 173 172 169 172 179 178 187 184 185 181 176 182 190 177 138 113 158 139 135 127 125 119 125 125 118 113 111 106 97 84 72 62
133 217 258 281 244 238 177 161 186 186 188 189 168 216 194 194 181 178 172 172 178 181 186 188 188 191 180 183 194 205 207 199 156 173 174 146 135 132 127 127 129 123 121 116 110 98 84 67 51
127 222 201 223 233 226 163 171 182 194 201 191 182 225 148 193 188 179 180 182 184 187 190 192 189 190 184 188 198 201 202 192 197 188 190 163 149 145 142 139 143 145 135 123 96 74 65 61 48
148 213 228 231 203 144 172 195 167 194 175 193 202 192 219 189 189 184 185 190 189 191 193 197 190 185 188 190 192 197 200 205 203 191 185 173 160 155 152 153 149 143 134 121 99 74 62 47 40
211 229 214 257 216 217 197 214 176 182 194 217 218 227 223 201 195 192 196 197 196 194 196 195 197 193 192 196 195 197 200 200 199 199 189 183 176 172 167 166 163 159 155 142 120 91 60 43 22
187 239 188 195 252 245 218 204 187 201 213 224 224 214 219 205 202 204 208 210 207 201 203 202 198 201 204 204 204 206 202 202 204 200 194 194 193 188 185 183 182 184 184 192 217 273 310 334 0
207 225 211 183 177 215 213 171 203 215 222 194 218 218 223 213 211 211 213 215 210 208 210 210 211 211 212 215 214 218 215 209 204 204 201 201 201 199 197 197 198 200 205 219 237 243 256 290 311
218 192 211 242 256 277 242 229 224 232 225 220 233 236 229 223 221 218 219 220 218 217 215 216 216 216 222 226 223 222 221 220 215 211 206 205 209 208 207 208 210 213 216 228 239 248 262 280 286
192 211 221 235 235 242 237 248 225 235 221 222 231 232 230 229 227 222 221 223 221 222 222 220 220 223 225 230 234 233 227 223 223 220 215 215 212 215 216 217 218 221 226 233 239 253 264 270 275
163 227 230 230 237 242 216 244 231 232 218 217 226 226 230 230 227 234 233 228 225 226 227 228 227 225 227 230 234 237 235 231 227 225 222 221 219 217 222 223 226 229 235 243 249 255 262 268 275
199 212 239 184 198 224 207 254 237 245 234 232 231 233 235 234 237 239 235 231 227 227 229 230 230 229 230 230 232 237 240 238 234 230 228 227 224 223 224 228 230 236 242 246 251 257 263 263 271
219 235 225 247 213 204 212 258 258 246 239 247 243 241 240 238 238 236 236 234 233 231 231 229 229 230 232 233 233 235 239 242 239 236 233 231 230 229 229 231 235 238 243 246 250 255 257 262 270
211 221 220 228 178 228 238 252 250 255 248 252 253 248 246 243 243 238 236 240 241 240 234 231 231 231 231 234 235 234 236 238 238 237 237 234 234 233 234 235 236 240 245 247 251 257 263 262 265
158 185 240 267 278 271 254 259 267 260 252 251 253 252 248 245 246 241 244 247 246 245 240 233 231 231 230 229 231 232 234 237 238 238 241 239 237 236 235 237 238 241 246 250 254 255 257 262 263
198 180 169 333 355 314 277 270 272 260 252 252 249 247 249 248 247 247 245 237 251 256 244 239 234 232 231 232 234 235 238 240 243 244 244 243 242 240 239 241 241 243 247 250 252 255 258 258 263
198 176 146 150 351 290 289 275 269 255 245 250 249 248 249 248 247 247 247 253 257 251 243 238 237 236 235 234 234 236 238 241 242 243 242 240 241 241 241 243 245 247 248 250 252 254 256 260 269
212 200 200 200 57 277 325 290 275 276 259 249 254 246 247 246 246 247 248 251 253 248 246 243 240 238 237 235 233 236 238 239 241 242 244 242 242 242 244 245 247 249 250 252 254 256 259 259 256
229 172 193 204 214 267 258 262 262 257 264 259 254 252 248 250 249 248 251 251 253 250 248 250 244 239 237 235 236 238 239 242 244 245 246 244 245 244 245 246 248 251 253 255 257 258 257 259 261
145 135 155 162 206 249 251 224 258 261 253 257 256 254 256 255 256 259 263 262 259 255 251 247 244 239 237 238 238 238 242 241 240 242 245 245 244 245 245 247 248 250 253 255 259 261 261 260 263
178 161 171 187 194 246 32 223 251 250 240 244 255 258 271 265 276 271 271 269 260 260 258 247 244 242 240 239 240 241 242 243 243 245 247 247 245 246 247 249 251 253 256 258 259 261 262 263 263
189 186 190 214 210 249 97 240 250 243 247 262 260 272 281 284 285 282 284 284 272 259 258 252 249 245 243 243 242 242 243 242 244 244 246 249 250 251 252 252 252 254 256 255 254 256 259 261 263
163 201 238 271 318 262 221 258 260 253 252 264 271 270 282 299 301 303 300 291 273 266 270 264 253 251 246 243 243 242 240 240 242 244 245 249 250 251 251 252 251 251 253 253 253 254 257 262 264
201 142 148 184 213 231 234 263 250 240 265 237 260 280 297 325 327 326 312 307 285 274 267 258 257 257 254 247 246 243 242 240 242 244 245 246 249 250 250 250 250 249 249 251 251 253 256 261 262
144 177 221 191 184 240 277 249 252 234 262 298 302 298 306 319 342 352 346 321 302 284 259 254 257 254 251 249 248 239 239 242 243 244 244 245 247 248 249 247 248 248 247 247 248 250 254 259 263
211 204 194 197 195 251 305 267 209 249 255 301 300 307 321 331 331 340 343 336 320 297 267 256 266 265 254 251 245 238 238 239 242 243 242 241 243 245 246 244 246 245 243 243 243 247 254 257 262
Wind_Speed_850mb
17 15 13 10 6 4 1 3 1 10 11 6 13 7 3 5 4 5 17 35 36 29 25 25 23 16 14 13 10 8 5 4 9 17 23 25 28 26 27 32 25 31 33 26 17 29 33 36 34
13 9 5 3 7 7 1 5 10 8 6 17 10 5 5 4 4 6 29 35 37 30 26 25 25 17 16 13 9 7 11 9 21 21 24 27 28 25 28 33 26 29 30 24 24 32 34 33 31
11 4 0 0 3 11 5 4 10 12 15 9 7 2 0 3 5 24 26 33 39 32 25 26 24 18 18 14 10 11 12 19 22 22 24 27 25 25 27 34 27 30 29 25 28 33 31 29 29
9 5 5 8 7 2 3 3 11 24 5 5 3 4 1 8 8 19 34 32 37 32 23 24 23 19 18 14 10 9 9 12 15 22 21 23 24 24 28 31 27 27 29 26 26 27 28 27 26
4 4 5 6 6 2 4 3 20 22 8 8 8 3 4 8 16 21 31 35 38 31 22 24 23 20 19 17 13 8 3 9 9 20 19 20 21 23 24 28 26 25 26 26 22 25 23 22 22
3 1 7 14 9 3 3 13 18 16 7 9 7 6 5 16 17 24 28 34 36 27 26 23 24 23 21 18 17 12 5 3 6 6 15 16 20 20 21 23 22 22 23 24 22 20 19 18 18
5 4 6 8 9 5 7 19 16 16 11 7 5 5 4 19 24 26 32 31 35 28 25 25 26 26 25 24 23 16 10 6 6 8 8 16 18 19 19 20 20 20 20 20 18 16 15 15 16
7 5 7 8 9 6 11 19 8 14 9 7 11 4 3 19 27 33 34 32 33 29 26 26 27 28 30 29 23 18 14 9 6 10 12 15 18 19 20 20 20 19 18 15 13 13 13 12 12
9 9 12 11 11 3 11 16 7 9 7 11 13 6 8 17 29 39 41 37 35 35 31 29 29 31 30 28 26 21 15 12 10 11 11 12 16 17 16 15 15 14 12 11 9 8 7 10 10
10 8 11 2 5 4 10 14 15 12 15 15 13 20 15 19 34 43 48 48 44 41 37 34 30 32 32 31 30 26 20 16 14 15 15 15 15 16 15 14 13 13 10 6 3 2 4 6 7
7 10 7 6 8 9 9 13 13 14 14 21 20 21 23 25 38 43 44 48 45 39 37 35 33 32 31 32 33 31 27 21 20 20 20 20 19 18 18 18 16 14 13 9 5 2 2 3 5
11 10 6 4 5 5 9 10 13 23 12 8 16 17 24 30 38 44 44 48 46 46 40 35 34 33 33 33 33 32 29 25 22 22 24 24 23 22 21 20 19 17 14 10 7 7 7 6 6
14 9 10 11 12 12 6 14 15 23 26 20 15 19 27 32 35 39 40 43 44 48 46 43 38 36 35 36 36 35 32 28 26 25 26 25 24 24 23 22 20 17 15 13 12 12 10 10 10
9 11 11 5 7 8 11 14 10 18 22 25 28 21 26 32 36 36 43 45 49 47 49 47 45 40 39 38 37 35 35 33 31 30 28 27 26 26 26 24 21 20 19 18 16 15 13 14 15
9 9 7 18 21 10 7 22 22 25 18 21 24 24 27 32 38 42 36 40 45 47 47 51 50 47 44 42 40 41 40 38 36 35 33 31 30 28 27 27 24 24 23 20 18 18 17 17 19
13 7 20 11 14 9 15 40 28 27 27 32 29 28 32 38 42 40 42 42 45 47 51 49 53 54 51 47 46 44 45 43 42 40 39 37 35 32 32 30 29 27 25 24 23 22 21 20 21
7 26 19 14 16 5 21 31 32 25 23 36 37 38 36 36 44 43 45 45 46 48 51 52 56 57 55 54 51 48 46 47 46 45 45 43 41 38 36 33 31 32 31 30 29 28 26 22 22
19 15 12 17 6 14 25 35 29 14 17 31 38 38 37 39 49 46 49 44 45 50 54 56 58 61 58 57 56 55 53 52 52 49 50 47 46 43 40 38 37 37 37 35 34 32 32 30 27
9 9 10 0 6 7 28 35 42 43 43 41 37 38 45 50 56 43 51 47 47 54 61 64 63 65 67 68 68 66 66 60 59 56 52 48 48 48 47 44 42 44 44 40 37 37 38 35 34
13 12 5 8 4 4 27 36 43 45 42 51 56 55 49 41 49 56 54 52 51 54 62 66 68 71 71 73 74 71 67 67 64 60 59 52 51 50 51 49 48 48 47 46 46 45 43 40 41
16 9 5 2 14 21 27 44 47 37 50 58 63 65 66 68 66 65 64 76 72 68 64 67 69 71 71 71 75 75 73 74 72 71 69 64 60 55 53 53 52 51 52 53 51 51 48 45 46
35 25 22 14 5 6 10 17 35 34 32 35 50 61 72 76 75 75 72 76 77 73 65 63 68 72 71 74 79 81 81 82 80 78 75 71 68 63 60 55 54 54 55 57 56 52 52 52 52
22 31 33 24 19 20 31 15 17 16 27 37 52 57 63 66 67 72 78 87 91 83 76 70 69 74 76 79 78 78 81 79 75 75 76 75 73 68 67 64 62 60 57 58 57 56 58 61 60
23 21 12 8 11 17 35 29 19 18 19 29 44 51 50 48 50 62 66 68 72 75 87 84 80 77 77 80 80 81 79 77 75 74 75 73 74 74 71 70 69 66 67 63 60 58 61 64 66
23 22 6 7 10 20 5 20 34 21 31 32 33 35 27 27 36 40 43 56 61 60 67 79 85 83 81 82 81 81 81 76 76 73 73 70 69 71 68 64 62 63 65 65 65 64 65 67 69
32 25 9 12 14 6 8 21 12 39 55 56 52 46 49 49 45 54 58 50 46 49 54 64 72 83 88 86 88 83 78 81 78 76 75 70 69 65 60 58 55 54 55 59 63 66 66 67 69
15 13 16 1 1 5 10 22 24 31 30 28 34 33 37 42 48 51 49 50 56 59 54 58 69 72 74 90 87 83 81 83 83 76 74 71 65 61 58 56 55 55 56 56 58 62 61 60 58
12 22 7 6 13 14 19 23 21 6 17 25 26 25 25 38 44 42 42 42 38 46 55 58 61 64 73 76 79 89 84 81 80 80 77 73 67 62 59 56 55 55 56 55 55 56 54 58 58
8 8 8 5 7 5 8 16 10 26 25 18 16 16 35 51 35 50 52 47 49 53 52 53 55 63 67 65 69 78 81 80 78 79 77 75 71 67 63 60 58 57 56 55 55 56 59 61 57
33 26 27 7 12 9 11 26 16 17 11 7 29 42 38 21 52 61 61 66 56 46 48 51 50 53 60 61 63 71 73 74 77 75 72 69 69 68 64 63 62 60 59 58 58 57 59 58 57
Wind_Direction_850mb
324 316 322 347 268 283 302 140 41 152 155 119 146 204 233 40 290 10 160 162 161 168 162 157 156 159 161 144 136 112 80 63 120 120 113 113 111 108 113 111 107 96 97 106 85 90 89 88 85
334 327 344 38 266 274 349 139 187 148 111 129 134 142 185 98 114 156 152 161 160 166 163 161 160 166 160 145 126 104 91 100 122 114 114 112 112 113 117 114 111 101 111 118 94 92 89 87 80
342 16 307 355 212 257 308 185 143 126 132 148 154 159 198 112 157 157 164 166 162 164 165 170 165 168 166 155 130 102 81 114 116 114 116 117 120 120 119 120 121 112 111 102 97 96 92 86 79
349 19 61 241 216 164 318 123 154 151 183 172 187 173 124 203 164 159 171 174 165 165 171 173 171 177 172 165 155 136 96 115 118 127 122 124 128 123 124 123 119 116 116 110 103 100 89 82 76
32 2 223 228 217 192 218 192 169 175 158 169 174 181 154 179 162 172 176 174 172 173 180 178 178 183 180 173 171 171 138 105 120 132 138 131 130 118 119 126 129 119 114 111 107 88 84 75 71
91 20 244 234 211 178 219 165 169 185 169 152 199 175 168 197 179 173 172 169 172 179 178 187 184 185 181 176 182 190 177 138 113 158 139 135 127 125 119 125 125 118 113 111 106 97 84 72 62
133 217 258 281 244 238 177 161 186 186 188 189 168 216 194 194 181 178 172 172 178 181 186 188 188 191 180 183 194 205 207 199 156 173 174 146 135 132 127 127 129 123 121 116 110 98 84 67 51
127 222 201 223 233 226 163 171 182 194 201 191 182 225 148 193 188 179 180 182 184 187 190 192 189 190 184 188 198 201 202 192 197 188 190 163 149 145 142 139 143 145 135 123 96 74 65 61 48
148 213 228 231 203 144 172 195 167 194 175 193 202 192 219 189 189 184 185 190 189 191 193 197 190 185 188 190 192 197 200 205 203 191 185 173 160 155 152 153 149 143 134 121 99 74 62 47 40
211 229 214 257 216 217 197 214 176 182 194 217 218 227 223 201 195 192 196 197 196 194 196 195 197 193 192 196 195 197 200 200 199 199 189 183 176 172 167 166 163 159 155 142 120 91 60 43 22
187 239 188 195 252 245 218 204 187 201 213 224 224 214 219 205 202 204 208 210 207 201 203 202 198 201 204 204 204 206 202 202 204 200 194 194 193 188 185 183 182 184 184 192 217 273 310 334 0
207 225 211 183 177 215 213 171 203 215 222 194 218 218 223 213 211 211 213 215 210 208 210 210 211 211 212 215 214 218 215 209 204 204 201 201 201 199 197 197 198 200 205 219 237 243 256 290 311
218 192 211 242 256 277 242 229 224 232 225 220 233 236 229 223 221 218 219 220 218 217 215 216 216 216 222 226 223 222 221 220 215 211 206 205 209 208 207 208 210 213 216 228 239 248 262 280 286
192 211 221 235 235 242 237 248 225 235 221 222 231 232 230 229 227 222 221 223 221 222 222 220 220 223 225 230 234 233 227 223 223 220 215 215 212 215 216 217 218 221 226 233 239 253 264 270 275
163 227 230 230 237 242 216 244 231 232 218 217 226 226 230 230 227 234 233 228 225 226 227 228 227 225 227 230 234 237 235 231 227 225 222 221 219 217 222 223 226 229 235 243 249 255 262 268 275
199 212 239 184 198 224 207 254 237 245 234 232 231 233 235 234 237 239 235 231 227 227 229 230 230 229 230 230 232 237 240 238 234 230 228 227 224 223 224 228 230 236 242 246 251 257 263 263 271
219 235 225 247 213 204 212 258 258 246 239 247 243 241 240 238 238 236 236 234 233 231 231 229 229 230 232 233 233 235 239 242 239 236 233 231 230 229 229 231 235 238 243 246 250 255 257 262 270
211 221 220 228 178 228 238 252 250 255 248 252 253 248 246 243 243 238 236 240 241 240 234 231 231 231 231 234 235 234 236 238 238 237 237 234 234 233 234 235 236 240 245 247 251 257 263 262 265
158 185 240 267 278 271 254 259 267 260 252 251 253 252 248 245 246 241 244 247 246 245 240 233 231 231 230 229 231 232 234 237 238 238 241 239 237 236 235 237 238 241 246 250 254 255 257 262 263
198 180 169 333 355 314 277 270 272 260 252 252 249 247 249 248 247 247 245 237 251 256 244 239 234 232 231 232 234 235 238 240 243 244 244 243 242 240 239 241 241 243 247 250 252 255 258 258 263
198 176 146 150 351 290 289 275 269 255 245 250 249 248 249 248 247 247 247 253 257 251 243 238 237 236 235 234 234 236 238 241 242 243 242 240 241 241 241 243 245 247 248 250 252 254 256 260 269
212 200 200 200 57 277 325 290 275 276 259 249 254 246 247 246 246 247 248 251 253 248 246 243 240 238 237 235 233 236 238 239 241 242 244 242 242 242 244 245 247 249 250 252 254 256 259 259 256
229 172 193 204 214 267 258 262 262 257 264 259 254 252 248 250 249 248 251 251 253 250 248 250 244 239 237 235 236 238 239 242 244 245 246 244 245 244 245 246 248 251 253 255 257 258 257 259 261
145 135 155 162 206 249 251 224 258 261 253 257 256 254 256 255 256 259 263 262 259 255 251 247 244 239 237 238 238 238 242 241 240 242 245 245 244 245 245 247 248 250 253 255 259 261 261 260 263
178 161 171 187 194 246 32 223 251 250 240 244 255 258 271 265 276 271 271 269 260 260 258 247 244 242 240 239 240 241 242 243 243 245 247 247 245 246 247 249 251 253 256 258 259 261 262 263 263
189 186 190 214 210 249 97 240 250 243 247 262 260 272 281 284 285 282 284 284 272 259 258 252 249 245 243 243 242 242 243 242 244 244 246 249 250 251 252 252 252 254 256 255 254 256 259 261 263
163 201 238 271 318 262 221 258 260 253 252 264 271 270 282 299 301 303 300 291 273 266 270 264 253 251 246 243 243 242 240 240 242 244 245 249 250 251 251 252 251 251 253 253 253 254 257 262 264
201 142 148 184 213 231 234 263 250 240 265 237 260 280 297 325 327 326 312 307 285 274 267 258 257 257 254 247 246 243 242 240 242 244 245 246 249 250 250 250 250 249 249 251 251 253 256 261 262
144 177 221 191 184 240 277 249 252 234 262 298 302 298 306 319 342 352 346 321 302 284 259 254 257 254 251 249 248 239 239 242 243 244 244 245 247 248 249 247 248 248 247 247 248 250 254 259 263
211 204 194 197 195 251 305 267 209 249 255 301 300 307 321 331 331 340 343 336 320 297 267 256 266 265 254 251 245 238 238 239 242 243 242 241 243 245 246 244 246 245 243 243 243 247 254 257 262